Location: Newark
(34.6283°N, 36.0776°E)
Time: 20:04:48
(UTC+00:00)

Courier 1B Rocket - Pass Details

Date: 24 September 2019
Orbit: 920 x 1202 km, 28.2° (Epoch: 16 October)

Event Time Altitude Azimuth Distance (km) Brightness Sun altitude
Rises 16:30:06 0° 268° (W) 3,900 10.0 -13.1°
Reaches altitude 10° 16:33:32 10° 254° (WSW) 2,889 8.6 -13.8°
Maximum altitude 16:38:49 23° 205° (SSW) 2,018 6.8 -14.9°
Drops below altitude 10° 16:43:50 10° 155° (SSE) 2,729 7.0 -15.9°
Enters shadow 16:44:39 - 151° (SSE) 2,946 7.1 -16.0°
